CZ-6A DEB, 61372

Orbit data source: Space-Track

CZ-6A DEB, 61372 is space debris in LEO originally from a launch on Tue, 06 Aug 2024 UTC launched from the Taiyaun Space Center, China (TSC). Debris objects in space refer to the collection of defunct objects orbiting the Earth. Examples of debris include non-operational satellites, rocket bodies, and fragments generated from explosions, collisions, or faulty payload assembly.

Loading next visibility...
Identifier
61372, 2024-140WM
Orbit
LEO
Country
Flag of CNCN / PRC
Related business
Manufacturer
SAST
Mission
Spacecraft
Bus & Motor
Unknown
Mass
Unknown
Launch date (UTC)
2024-08-06 (2 years ago)
Launch vehicle
Unknown
Launch site
Taiyaun Space Center, China (TSC)
Object type
Payload
Rocket body
Debris
Shape & HBR
Unknown shape, 0.1 m
Radar Cross Section
Small (<0.1 m²)

Expand to show TLE details & history
Last TLE update: 15 hours ago

TLE from 15 hours ago
0 CZ-6A DEB
1 61372U 24140WM  26129.84554184  .00001281  00000-0  54239-3 0  9997
2 61372  88.9994 278.7137 0032974 327.2572  32.6576 14.24627594 87172
Epoch: 2026-05-09T20:17Z
TLE epoch observation values (Epoch: 2026-05-09T20:17:34.814Z)
Latitude
-0.00007°
Longitude
106.66151°
Altitude
792.869 km
Speed
7.467 km/s
True Right ascension
18h 34m 51s
True Declination
0° 00' 00"
Sunlit
Object was in full shadow at epoch
Visualization orbit readout
Latitude
Unknown
Longitude
Unknown
Altitude
Unknown
Speed
Unknown
Apparent Right ascension
Unknown
Apparent Declination
Unknown
Sunlit
N/A
Visualization observer readout
Local Sidereal Time
19:50:57
Azimuth
Unknown
Elevation
Unknown
Doppler factor
Unknown
Orbital elements
Apogee altitude
830.381 km
Perigee altitude
782.998 km
Semi-major axis
7,184.827 km
Eccentricity
0.0033
Inclination
88.9994°
RAAN
278.7137°
Arg. of periapsis
327.2572°
True anomaly
32.86221°
Mean anomaly
32.6576°
Eccentric anomaly
32.75983°
Mean motion
3.56384 °/min
Orbital period
101.01 mins
BSTAR
0.00054239
Loading maneuver chart data...
Computing Atmospheric mass density...
Loading historical data...
Loading historical data...
Loading historical data...
Loading historical data...
Loading historical data...
Loading historical data...
Loading historical data...

Documentation

Showing up to 5 results
|